• MPC Preparation (Info)

  • MPEC 2017-L69 : 2017 LV

    The following Minor Planet Electronic Circular may be linked-to from your own Web pages, but must not otherwise be redistributed electronically.

    A form allowing access to any MPEC is at the bottom of this page.


    Read MPEC 2017-L68 Read MPEC 2017-L70


    M.P.E.C. 2017-L69                                Issued 2017 June 15, 10:44 UT
    
         The Minor Planet Electronic Circulars contain information on unusual
             minor planets and routine data on comets.  They are published
        on behalf of Division F of the International Astronomical Union by the
              Minor Planet Center, Smithsonian Astrophysical Observatory,
                              Cambridge, MA 02138, U.S.A.
    
                 Prepared using the Tamkin Foundation Computer Network
    
                                  MPC@CFA.HARVARD.EDU
                URL https://www.minorplanetcenter.net/    ISSN 1523-6714
    
                                        2017 LV
    
    Observations:
         K17L00V* C2017 06 13.31671 16 56 13.19 -10 11 13.0          19.9 VqEL069G96
         K17L00V  C2017 06 13.32101 16 56 15.39 -10 10 12.8          20.6 VqEL069G96
         K17L00V  C2017 06 13.32523 16 56 17.52 -10 09 13.1          19.6 VqEL069G96
         K17L00V  C2017 06 13.32946 16 56 19.68 -10 08 14.2          19.5 VqEL069G96
         K17L00V  C2017 06 13.34916 16 56 29.76 -10 03 35.5          19.6 VqEL069G96
         K17L00V  C2017 06 13.34957 16 56 30.02 -10 03 30.6          19.0 VqEL069G96
         K17L00V  C2017 06 13.34998 16 56 30.19 -10 03 24.0          19.5 VqEL069G96
         K17L00V  C2017 06 13.35038 16 56 30.42 -10 03 17.9          19.3 VqEL069G96
         K17L00V KC2017 06 13.87636 17 02 19.65 -07 49 40.2          19.5  SEL069104
         K17L00V KC2017 06 13.88257 17 02 23.53 -07 47 57.2          19.7  SEL069104
         K17L00V KC2017 06 13.88931 17 02 27.77 -07 46 05.1          19.2  SEL069104
         K17L00V KC2017 06 13.91687 17 02 46.81 -07 38 43.5                UEL069J95
         K17L00V KC2017 06 13.93265 17 02 56.85 -07 34 18.5                UEL069J95
         K17L00V KC2017 06 13.93943 17 03 01.18 -07 32 24.7                UEL069J95
         K17L00V KC2017 06 13.94336 17 03 03.73 -07 31 18.0          20.1 GUEL069J95
         K17L00V  C2017 06 14.23013 17 06 38.24 -06 05 25.0          19.4 VqEL069G96
         K17L00V  C2017 06 14.23434 17 06 41.13 -06 04 06.8          19.5 VqEL069G96
         K17L00V  C2017 06 14.24276 17 06 46.83 -06 01 31.2                qEL069G96
         K17L00V  C2017 06 14.32196 17 07 41.21 -05 36 27.9          19.1 RoEL069926
         K17L00V  C2017 06 14.32381 17 07 42.52 -05 35 52.5          19.3 RoEL069926
         K17L00V  C2017 06 14.32566 17 07 43.80 -05 35 16.9          19.4 RoEL069926
         K17L00V  C2017 06 14.32751 17 07 45.08 -05 34 41.4          19.2 RoEL069926
         K17L00V  C2017 06 14.32936 17 07 46.36 -05 34 06.2          19.2 RoEL069926
         K17L00V  C2017 06 14.33122 17 07 47.67 -05 33 30.0          19.2 RoEL069926
         K17L00V  C2017 06 14.37885 17 08 21.35 -05 18 04.3          21.0 RoEL069926
         K17L00V  C2017 06 14.38256 17 08 24.03 -05 16 50.2          18.4 RoEL069926
         K17L00V  C2017 06 14.38441 17 08 25.43 -05 16 14.7          19.3 RoEL069926
         K17L00V  C2017 06 14.38627 17 08 26.75 -05 15 38.2          19.1 RoEL069926
         K17L00V  C2017 06 14.38812 17 08 28.09 -05 15 01.2          18.9 RoEL069926
         K17L00V KC2017 06 14.96235 17 17 07.57 -01 49 20.9          19.1 RqEL069A17
         K17L00V KC2017 06 14.97104 17 17 15.30 -01 45 53.8          19.0 RqEL069A17
         K17L00V KC2017 06 14.97973 17 17 23.07 -01 42 25.2          19.1 RqEL069A17
         K17L00V KC2017 06 15.31227 17 23 04.36 +00 38 53.9          19.2 RqEL069734
         K17L00V KC2017 06 15.31834 17 23 10.41 +00 41 36.4          19.2 RqEL069734
         K17L00V KC2017 06 15.32441 17 23 16.55 +00 44 19.3          19.1 RqEL069734
    
    Observer details:
    104 San Marcello Pistoiese.  Observers P. Bacci, M. Maestripieri.  Measurers
        P. Bacci, L. Tesi, G. Fagioli.  0.60-m f/4 reflector + CCD.
    734 Farpoint Observatory.  Observer G. Hug.  0.69-m reflector + CCD.
    926 Tenagra II Observatory.  Observers M. Schwartz, P. R. Holvorcem.  Measurer
        M. Schwartz.  0.81-m f/7 Ritchey-Chretien + CCD.
    A17 Guidestar Observatory, Weinheim.  Observers M. Emmerich, S. Melchert.
        0.36-m f/6 Schmidt-Cassegrain + CCD.
    G96 Mt. Lemmon Survey.  Observer R. A. Kowalski.  Measurers E. J. Christensen,
        D. C. Fuls, A. R. Gibbs, A. D. Grauer, J. A. Johnson, R. A. Kowalski,
        S. M. Larson, G. J. Leonard, R. G. Matheny, R. L. Seaman, F. C. Shelly.
        1.5-m reflector + 10K CCD.
    J95 Great Shefford.  Observer P. Birtwhistle.  0.40-m f/6.0 Schmidt-Cassegrain
        + CCD.
    
    Orbital elements:
    2017 LV                                                  Earth MOID = 0.0167 AU
    Epoch 2017 Sept. 4.0 TT = JDT 2458000.5                 MPC
    M  16.84583              (2000.0)            P               Q
    n   0.41824233     Peri.   58.53954     +0.70161848     +0.70867728
    a   1.7708593      Node   256.21257     -0.67694206     +0.63041394
    e   0.4826754      Incl.    4.38269     -0.22244315     +0.31678823
    P   2.36           H   26.0           G   0.15           U   7
    Residuals in seconds of arc
    170613 G96  0.2-  0.2+    170613 J95  0.2-  0.1+    170614 926  0.4-  0.5-
    170613 G96  0.1+  0.1+    170613 J95  0.3-  0.5-    170614 926  0.3-  0.8+
    170613 G96  0.1-  0.5+    170613 J95  0.1+  0.2-    170614 926  0.7+  0.1-
    170613 G96  0.1-  0.1-    170614 G96  0.4-  0.4+    170614 926  0.3+  0.2-
    170613 G96  0.5-  0.1+    170614 G96  0.1-  0.5+    170614 926  0.3+  0.5+
    170613 G96  0.2+  0.9-    170614 G96  0.6-  0.6-    170614 A17  0.3-  0.2-
    170613 G96  0.4-  0.1-    170614 926  0.1-  0.2+    170614 A17  0.8-  0.1-
    170613 G96  0.1-  0.3+    170614 926  0.2+  0.0     170614 A17  0.9-  0.8+
    170613 104  0.1-  0.2+    170614 926  0.1+  0.0     170615 734  0.4+  0.7+
    170613 104  0.0   0.4+    170614 926  0.0   0.0     170615 734  0.0   0.1-
    170613 104  0.6+  0.8+    170614 926  0.1-  0.5-    170615 734  0.7+  0.8-
    170613 J95  0.7+  0.1+    170614 926  0.1+  0.1-
    
    Ephemeris:
    2017 LV                  a,e,i = 1.77, 0.48, 4                   q = 0.9161
    Date    TT    R. A. (2000) Decl.     Delta      r     Elong.  Phase     V
    2017 05 16    16 03 58.0 -28 58 45   0.2276  1.2342   167.5    10.2    23.9
    ...
    2017 05 31    16 11 59.7 -26 29 54   0.1196  1.1328   173.6     5.7    22.1
    ...
    2017 06 08    16 26 23.4 -21 22 59   0.06832 1.0825   171.1     8.3    20.9
    ...
    2017 06 14    17 03 40.6 -07 11 39   0.03326 1.0475   162.8    16.6    19.6
    2017 06 15    17 17 43.6 -01 30 37   0.02816 1.0419   157.9    21.5    19.4
    2017 06 16    17 37 29.7 +06 29 58   0.02362 1.0364   150.2    29.2    19.2
    ...
    2017 06 22    00 38 50.9 +56 52 41   0.02749 1.0053    65.6   112.9    22.6
    ...
    2017 06 30    03 00 56.7 +43 21 54   0.07271 0.9697    48.2   128.6    25.8
    ...
    2017 07 15    03 41 12.7 +37 19 15   0.1657  0.9258    52.8   119.0    26.7
    
    A. U. Tomatic                (C) Copyright 2017 MPC           M.P.E.C. 2017-L69
    

    Read MPEC 2017-L68 Read MPEC 2017-L70


    MPEC number:

    Enter an MPEC number in one of the following forms:

    • 1997-B01 (the full form)
    • J97B01 (the packed version of the full form)
    • B01 (the abbreviated form)